Time,TemperatureF,DewpointF,PressureIn,WindDirection,WindDirectionDegrees,WindSpeedMPH,WindSpeedGustMPH,Humidity,HourlyPrecipIn,Conditions,Clouds,dailyrainin,SoftwareType,DateUTC
2013-01-14 00:07:00,12.9,7.0,30.45,WNW,290,2.0,-999.0,76,-99.99,,,0.00,weatherlink.com 1.10,2013-01-14 06:07:00,
2013-01-14 00:22:00,12.7,7.0,30.46,WSW,251,2.0,-999.0,76,-99.99,,,0.00,weatherlink.com 1.10,2013-01-14 06:22:00,
2013-01-14 00:37:00,12.7,7.0,30.45,WSW,251,1.0,-999.0,76,-99.99,,,0.00,weatherlink.com 1.10,2013-01-14 06:37:00,
2013-01-14 00:52:00,12.6,6.0,30.45,WNW,289,3.0,-999.0,76,-99.99,,,0.00,weatherlink.com 1.10,2013-01-14 06:52:00,
2013-01-14 01:07:00,12.2,6.0,30.45,West,271,2.0,-999.0,77,-99.99,,,0.00,weatherlink.com 1.10,2013-01-14 07:07:00,
2013-01-14 01:22:00,12.4,7.0,30.46,West,275,0.0,-999.0,77,-99.99,,,0.00,weatherlink.com 1.10,2013-01-14 07:22:00,
2013-01-14 01:37:00,12.2,6.0,30.46,West,275,2.0,-999.0,77,-99.99,,,0.00,weatherlink.com 1.10,2013-01-14 07:37:00,
2013-01-14 01:52:00,12.0,6.0,30.46,WNW,290,0.0,-999.0,78,-99.99,,,0.00,weatherlink.com 1.10,2013-01-14 07:52:00,
2013-01-14 02:07:00,12.0,6.0,30.48,West,274,0.0,-999.0,78,-99.99,,,0.00,weatherlink.com 1.10,2013-01-14 08:07:00,
2013-01-14 02:22:00,11.8,6.0,30.49,West,274,0.0,-999.0,78,-99.99,,,0.00,weatherlink.com 1.10,2013-01-14 08:22:00,
2013-01-14 02:37:00,11.7,6.0,30.50,West,274,0.0,-999.0,78,-99.99,,,0.00,weatherlink.com 1.10,2013-01-14 08:37:00,
2013-01-14 02:53:00,11.8,7.0,30.51,West,274,0.0,-999.0,79,-99.99,,,0.00,weatherlink.com 1.10,2013-01-14 08:53:00,
2013-01-14 03:08:00,11.7,7.0,30.52,West,274,1.0,-999.0,80,-99.99,,,0.00,weatherlink.com 1.10,2013-01-14 09:08:00,
2013-01-14 03:23:00,12.1,7.0,30.53,West,274,0.0,-999.0,79,-99.99,,,0.00,weatherlink.com 1.10,2013-01-14 09:23:00,
2013-01-14 03:38:00,12.0,7.0,30.53,West,274,0.0,-999.0,80,-99.99,,,0.00,weatherlink.com 1.10,2013-01-14 09:38:00,
2013-01-14 03:53:00,11.7,7.0,30.53,West,274,0.0,-999.0,81,-99.99,,,0.00,weatherlink.com 1.10,2013-01-14 09:53:00,
2013-01-14 04:09:00,11.2,6.0,30.53,West,274,0.0,-999.0,81,-99.99,,,0.00,weatherlink.com 1.10,2013-01-14 10:09:00,
2013-01-14 04:24:00,11.0,7.0,30.53,West,274,0.0,-999.0,83,-99.99,,,0.00,weatherlink.com 1.10,2013-01-14 10:24:00,
2013-01-14 04:39:00,10.8,6.0,30.53,West,274,0.0,-999.0,82,-99.99,,,0.00,weatherlink.com 1.10,2013-01-14 10:39:00,
2013-01-14 04:54:00,10.8,6.0,30.53,West,274,0.0,-999.0,82,-99.99,,,0.00,weatherlink.com 1.10,2013-01-14 10:54:00,
2013-01-14 05:09:00,10.8,6.0,30.53,West,274,0.0,-999.0,82,-99.99,,,0.00,weatherlink.com 1.10,2013-01-14 11:09:00,
2013-01-14 05:24:00,10.5,6.0,30.53,West,274,0.0,-999.0,82,-99.99,,,0.00,weatherlink.com 1.10,2013-01-14 11:24:00,
2013-01-14 05:39:00,10.3,6.0,30.53,West,274,0.0,-999.0,82,-99.99,,,0.00,weatherlink.com 1.10,2013-01-14 11:39:00,
2013-01-14 05:55:00,10.4,6.0,30.54,West,274,0.0,-999.0,83,-99.99,,,0.00,weatherlink.com 1.10,2013-01-14 11:55:00,
2013-01-14 06:10:00,10.5,6.0,30.55,West,274,0.0,-999.0,83,-99.99,,,0.00,weatherlink.com 1.10,2013-01-14 12:10:00,
2013-01-14 06:25:00,10.5,6.0,30.55,West,274,0.0,-999.0,83,-99.99,,,0.00,weatherlink.com 1.10,2013-01-14 12:25:00,
2013-01-14 06:40:00,10.4,6.0,30.56,West,274,0.0,-999.0,83,-99.99,,,0.00,weatherlink.com 1.10,2013-01-14 12:40:00,
2013-01-14 06:55:00,10.1,6.0,30.57,West,274,0.0,-999.0,83,-99.99,,,0.00,weatherlink.com 1.10,2013-01-14 12:55:00,
2013-01-14 07:10:00,10.0,6.0,30.57,West,274,0.0,-999.0,83,-99.99,,,0.00,weatherlink.com 1.10,2013-01-14 13:10:00,
2013-01-14 07:25:00,9.9,6.0,30.56,West,274,0.0,-999.0,84,-99.99,,,0.00,weatherlink.com 1.10,2013-01-14 13:25:00,
2013-01-14 07:40:00,10.0,6.0,30.57,West,274,0.0,-999.0,83,-99.99,,,0.00,weatherlink.com 1.10,2013-01-14 13:40:00,
2013-01-14 07:55:00,10.2,6.0,30.57,West,274,0.0,-999.0,84,-99.99,,,0.00,weatherlink.com 1.10,2013-01-14 13:55:00,
2013-01-14 08:10:00,10.7,7.0,30.57,West,274,0.0,-999.0,83,-99.99,,,0.00,weatherlink.com 1.10,2013-01-14 14:10:00,
2013-01-14 08:25:00,11.8,7.0,30.58,West,274,0.0,-999.0,82,-99.99,,,0.00,weatherlink.com 1.10,2013-01-14 14:25:00,
2013-01-14 08:40:00,12.2,7.0,30.58,West,274,1.0,-999.0,81,-99.99,,,0.00,weatherlink.com 1.10,2013-01-14 14:40:00,
2013-01-14 08:56:00,12.9,8.0,30.59,South,181,1.0,-999.0,80,-99.99,,,0.00,weatherlink.com 1.10,2013-01-14 14:56:00,
2013-01-14 09:11:00,13.0,8.0,30.59,SSE,168,1.0,-999.0,80,-99.99,,,0.00,weatherlink.com 1.10,2013-01-14 15:11:00,
2013-01-14 09:26:00,13.8,8.0,30.58,SSW,198,3.0,-999.0,79,-99.99,,,0.00,weatherlink.com 1.10,2013-01-14 15:26:00,
2013-01-14 09:41:00,15.1,9.0,30.59,SSW,204,1.0,-999.0,77,-99.99,,,0.00,weatherlink.com 1.10,2013-01-14 15:41:00,
2013-01-14 09:56:00,15.8,10.0,30.60,SW,214,4.0,-999.0,77,-99.99,,,0.00,weatherlink.com 1.10,2013-01-14 15:56:00,
2013-01-14 10:10:00,16.9,11.0,30.61,South,184,4.0,-999.0,76,-99.99,,,0.00,weatherlink.com 1.10,2013-01-14 16:10:00,
2013-01-14 10:25:00,17.8,11.0,30.61,SW,220,3.0,-999.0,76,-99.99,,,0.00,weatherlink.com 1.10,2013-01-14 16:25:00,
2013-01-14 10:40:00,18.9,12.0,30.61,South,169,5.0,-999.0,75,-99.99,,,0.00,weatherlink.com 1.10,2013-01-14 16:40:00,
2013-01-14 10:55:00,20.0,12.0,30.61,SW,220,2.0,-999.0,72,-99.99,,,0.00,weatherlink.com 1.10,2013-01-14 16:55:00,
2013-01-14 11:11:00,21.1,13.0,30.61,South,190,2.0,-999.0,72,-99.99,,,0.00,weatherlink.com 1.10,2013-01-14 17:11:00,
2013-01-14 11:26:00,21.2,13.0,30.60,South,183,2.0,-999.0,71,-99.99,,,0.00,weatherlink.com 1.10,2013-01-14 17:26:00,
2013-01-14 11:41:00,22.7,14.0,30.59,SW,229,3.0,-999.0,69,-99.99,,,0.00,weatherlink.com 1.10,2013-01-14 17:41:00,
2013-01-14 11:56:00,22.9,14.0,30.57,SSW,199,3.0,-999.0,70,-99.99,,,0.00,weatherlink.com 1.10,2013-01-14 17:56:00,
2013-01-14 12:11:00,23.9,14.0,30.56,SSW,192,2.0,-999.0,65,-99.99,,,0.00,weatherlink.com 1.10,2013-01-14 18:11:00,
2013-01-14 12:26:00,24.5,14.0,30.55,SSW,194,2.0,-999.0,64,-99.99,,,0.00,weatherlink.com 1.10,2013-01-14 18:26:00,
2013-01-14 12:41:00,25.1,14.0,30.54,SW,234,2.0,-999.0,62,-99.99,,,0.00,weatherlink.com 1.10,2013-01-14 18:41:00,
2013-01-14 12:56:00,25.7,13.0,30.54,South,177,4.0,-999.0,59,-99.99,,,0.00,weatherlink.com 1.10,2013-01-14 18:56:00,
2013-01-14 13:11:00,26.2,13.0,30.53,West,271,0.0,-999.0,57,-99.99,,,0.00,weatherlink.com 1.10,2013-01-14 19:11:00,
2013-01-14 13:27:00,26.8,13.0,30.52,WNW,283,2.0,-999.0,56,-99.99,,,0.00,weatherlink.com 1.10,2013-01-14 19:27:00,
2013-01-14 13:42:00,27.5,11.0,30.52,West,275,0.0,-999.0,51,-99.99,,,0.00,weatherlink.com 1.10,2013-01-14 19:42:00,
2013-01-14 13:57:00,27.7,11.0,30.51,West,280,5.0,-999.0,50,-99.99,,,0.00,weatherlink.com 1.10,2013-01-14 19:57:00,
2013-01-14 14:12:00,28.3,11.0,30.51,South,184,4.0,-999.0,49,-99.99,,,0.00,weatherlink.com 1.10,2013-01-14 20:12:00,
2013-01-14 14:27:00,28.6,11.0,30.52,SW,234,3.0,-999.0,48,-99.99,,,0.00,weatherlink.com 1.10,2013-01-14 20:27:00,
2013-01-14 14:42:00,28.1,10.0,30.52,SSW,200,5.0,-999.0,47,-99.99,,,0.00,weatherlink.com 1.10,2013-01-14 20:42:00,
2013-01-14 14:57:00,28.7,11.0,30.52,West,268,4.0,-999.0,47,-99.99,,,0.00,weatherlink.com 1.10,2013-01-14 20:57:00,
2013-01-14 15:12:00,29.1,11.0,30.51,WSW,242,2.0,-999.0,47,-99.99,,,0.00,weatherlink.com 1.10,2013-01-14 21:12:00,
2013-01-14 15:27:00,29.3,10.0,30.51,SSW,197,3.0,-999.0,45,-99.99,,,0.00,weatherlink.com 1.10,2013-01-14 21:27:00,
2013-01-14 15:43:00,29.6,11.0,30.52,SW,226,0.0,-999.0,45,-99.99,,,0.00,weatherlink.com 1.10,2013-01-14 21:43:00,
2013-01-14 15:58:00,29.2,10.0,30.52,SW,215,4.0,-999.0,44,-99.99,,,0.00,weatherlink.com 1.10,2013-01-14 21:58:00,
2013-01-14 16:12:00,29.3,10.0,30.53,SW,215,1.0,-999.0,45,-99.99,,,0.00,weatherlink.com 1.10,2013-01-14 22:12:00,
2013-01-14 16:27:00,29.5,10.0,30.52,SW,215,0.0,-999.0,44,-99.99,,,0.00,weatherlink.com 1.10,2013-01-14 22:27:00,
2013-01-14 16:43:00,28.9,10.0,30.52,SSW,211,0.0,-999.0,45,-99.99,,,0.00,weatherlink.com 1.10,2013-01-14 22:43:00,
2013-01-14 16:58:00,27.9,9.0,30.52,SSW,211,0.0,-999.0,46,-99.99,,,0.00,weatherlink.com 1.10,2013-01-14 22:58:00,
2013-01-14 17:13:00,27.7,10.0,30.52,SSW,211,0.0,-999.0,48,-99.99,,,0.00,weatherlink.com 1.10,2013-01-14 23:13:00,
2013-01-14 17:28:00,26.9,10.0,30.52,SSW,211,0.0,-999.0,50,-99.99,,,0.00,weatherlink.com 1.10,2013-01-14 23:28:00,
2013-01-14 17:43:00,26.4,10.0,30.52,SSW,211,0.0,-999.0,51,-99.99,,,0.00,weatherlink.com 1.10,2013-01-14 23:43:00,
2013-01-14 17:58:00,26.0,10.0,30.52,SSW,211,0.0,-999.0,52,-99.99,,,0.00,weatherlink.com 1.10,2013-01-14 23:58:00,
2013-01-14 18:13:00,25.3,11.0,30.52,SSW,211,0.0,-999.0,54,-99.99,,,0.00,weatherlink.com 1.10,2013-01-15 00:13:00,
2013-01-14 18:28:00,24.4,11.0,30.52,SSW,211,0.0,-999.0,56,-99.99,,,0.00,weatherlink.com 1.10,2013-01-15 00:28:00,
2013-01-14 18:43:00,24.2,10.0,30.52,SSW,211,0.0,-999.0,56,-99.99,,,0.00,weatherlink.com 1.10,2013-01-15 00:43:00,
2013-01-14 18:58:00,24.0,10.0,30.52,SSW,211,0.0,-999.0,56,-99.99,,,0.00,weatherlink.com 1.10,2013-01-15 00:58:00,
2013-01-14 19:13:00,23.9,10.0,30.52,SSW,211,0.0,-999.0,56,-99.99,,,0.00,weatherlink.com 1.10,2013-01-15 01:13:00,
2013-01-14 19:28:00,23.9,10.0,30.53,SSW,211,0.0,-999.0,56,-99.99,,,0.00,weatherlink.com 1.10,2013-01-15 01:28:00,
2013-01-14 19:43:00,23.7,10.0,30.53,SSW,211,0.0,-999.0,56,-99.99,,,0.00,weatherlink.com 1.10,2013-01-15 01:43:00,
2013-01-14 19:58:00,23.0,10.0,30.52,SSW,211,0.0,-999.0,58,-99.99,,,0.00,weatherlink.com 1.10,2013-01-15 01:58:00,
2013-01-14 20:13:00,21.9,10.0,30.52,SSW,211,0.0,-999.0,61,-99.99,,,0.00,weatherlink.com 1.10,2013-01-15 02:13:00,
2013-01-14 20:28:00,21.9,11.0,30.52,SSW,211,0.0,-999.0,62,-99.99,,,0.00,weatherlink.com 1.10,2013-01-15 02:28:00,
2013-01-14 20:44:00,22.0,10.0,30.51,SSW,211,0.0,-999.0,61,-99.99,,,0.00,weatherlink.com 1.10,2013-01-15 02:44:00,
2013-01-14 20:59:00,22.1,10.0,30.51,SSW,211,0.0,-999.0,61,-99.99,,,0.00,weatherlink.com 1.10,2013-01-15 02:59:00,
2013-01-14 21:14:00,21.8,11.0,30.52,SSW,211,0.0,-999.0,62,-99.99,,,0.00,weatherlink.com 1.10,2013-01-15 03:14:00,
2013-01-14 21:29:00,21.3,10.0,30.52,SSW,211,0.0,-999.0,63,-99.99,,,0.00,weatherlink.com 1.10,2013-01-15 03:29:00,
2013-01-14 21:44:00,21.0,11.0,30.51,SSW,211,0.0,-999.0,64,-99.99,,,0.00,weatherlink.com 1.10,2013-01-15 03:44:00,
2013-01-14 21:59:00,20.6,10.0,30.51,SSW,211,0.0,-999.0,65,-99.99,,,0.00,weatherlink.com 1.10,2013-01-15 03:59:00,
2013-01-14 22:14:00,20.0,10.0,30.51,SSW,211,0.0,-999.0,66,-99.99,,,0.00,weatherlink.com 1.10,2013-01-15 04:14:00,
2013-01-14 22:29:00,19.6,11.0,30.51,SSW,211,0.0,-999.0,68,-99.99,,,0.00,weatherlink.com 1.10,2013-01-15 04:29:00,
2013-01-14 22:44:00,20.0,11.0,30.50,SSW,211,0.0,-999.0,67,-99.99,,,0.00,weatherlink.com 1.10,2013-01-15 04:44:00,
2013-01-14 22:59:00,19.8,10.0,30.50,SSW,211,0.0,-999.0,67,-99.99,,,0.00,weatherlink.com 1.10,2013-01-15 04:59:00,
2013-01-14 23:14:00,19.3,10.0,30.51,SSW,211,0.0,-999.0,68,-99.99,,,0.00,weatherlink.com 1.10,2013-01-15 05:14:00,
2013-01-14 23:29:00,18.9,10.0,30.51,South,178,0.0,-999.0,69,-99.99,,,0.00,weatherlink.com 1.10,2013-01-15 05:29:00,
2013-01-14 23:44:00,18.7,10.0,30.51,SSE,155,0.0,-999.0,70,-99.99,,,0.00,weatherlink.com 1.10,2013-01-15 05:44:00,
2013-01-14 23:59:00,18.7,10.0,30.50,SE,144,0.0,-999.0,70,-99.99,,,0.00,weatherlink.com 1.10,2013-01-15 05:59:00,